GSAT-8

Last updated on May 20, 2019, 3:09 a.m. UTC

1 37605U 11022A   19139.22618649  .00000075  00000-0  00000+0 0  9999
2 37605   0.0560 106.1699 0003018 199.8367  67.0605  1.00270805 29313
UTC
Height (km)
Latitude
Longitude
Inclination
Orbital Period
UTC large
Height (km)
Speed (km/s)
/
Latitude / Longitude
Inclination (degrees)
Orbital Period (minutes)
Azimuth
Elevation
Range (km)
Doppler Factor
iOS Compass Heading
iOS Angle

Next 30 passes for location: Hong Kong

Rise time Rise Azimuth (degrees) Set time Set Azimuth (degrees) Duration Max altitude (degrees)

No matching passes for this satellites